Location: Dehesa de la Cepeda
(40.6574°N, 4.3013°W)
Time: 09:28:44
(UTC+00:00)

Meteor 2-1 Rocket - Pass Details

Date: 05 July 2020
Orbit: 831 x 905 km, 81.3° (Epoch: 07 August)

Event Time Altitude Azimuth Distance (km) Brightness Sun altitude
Rises 20:31:51 0° 353° (N) 3,488 8.2 -7.2°
Reaches altitude 10° 20:34:20 10° 357° (N) 2,555 7.4 -7.5°
Maximum altitude 20:40:07 65° 79° (ENE) 985 4.4 -8.4°
Drops below altitude 10° 20:45:57 10° 160° (SSE) 2,573 6.2 -9.2°
Enters shadow 20:46:43 - 162° (SSE) 2,864 6.4 -9.3°
